Printer-friendly version

IAU Minor Planet Center

Minor Planet Center

MPEC 2005-X62 : 2005 XT77

The following Minor Planet Electronic Circular may be linked-to from your own Web pages, but must not otherwise be redistributed electronically.

A form allowing access to any MPEC is at the bottom of this page.


Read MPEC 2005-X61 Read MPEC 2005-X63


M.P.E.C. 2005-X62                                Issued 2005 Dec. 11, 23:08 UT

     The Minor Planet Electronic Circulars contain information on unusual
         minor planets and routine data on comets.  They are published
   on behalf of Commission 20 of the International Astronomical Union by the
          Minor Planet Center, Smithsonian Astrophysical Observatory,
                          Cambridge, MA 02138, U.S.A.

                  Supported in part by the Brinson Foundation
                  Supported in part by the TABASGO Foundation
             Prepared using the Tamkin Foundation Computer Network

                              MPC@CFA.HARVARD.EDU
          URL http://cfa-www.harvard.edu/iau/mpc.html  ISSN 1523-6714

                                   2005 XT77

Observations:
     K05X77T  C2005 12 06.62086 04 33 58.42 -25 05 16.1          17.5 V EX062428
     K05X77T* C2005 12 10.24050 03 45 45.69 -19 02 39.1          17.3 R EX062699
     K05X77T  C2005 12 10.26244 03 45 25.99 -18 59 57.0                 EX062699
     K05X77T  C2005 12 10.28437 03 45 06.37 -18 57 13.5                 EX062699
     K05X77T  C2005 12 10.36092 03 43 58.00 -18 47 37.3          17.3 R EX062699
     K05X77T  C2005 12 10.36458 03 43 54.68 -18 47 08.7                 EX062699
     K05X77T  C2005 12 10.36823 03 43 51.43 -18 46 41.4                 EX062699
     K05X77T  C2005 12 10.37188 03 43 48.16 -18 46 12.9                 EX062699
     K05X77T  C2005 12 10.87099 03 36 43.60 -17 42 53.4          17.8 R EX062143
     K05X77T  C2005 12 10.88791 03 36 28.39 -17 40 41.1          18.0 R EX062143
     K05X77T  C2005 12 10.89764 03 36 20.39 -17 39 28.0                 EX062J95
     K05X77T  C2005 12 10.90347 03 36 15.17 -17 38 42.7                 EX062J95
     K05X77T  C2005 12 10.90920 03 36 10.03 -17 37 57.3                 EX062J95
     K05X77T  C2005 12 10.91618 03 36 03.73 -17 37 03.5                 EX062J95
     K05X77T  C2005 12 10.92046 03 35 59.84 -17 36 29.2          17.7 R EX062J95
     K05X77T  C2005 12 11.17639 03 32 12.70 -17 00 02.4          17.0   EX062844
     K05X77T  C2005 12 11.18088 03 32 08.67 -16 59 26.0          17.0   EX062844
     K05X77T  C2005 12 11.18189 03 32 07.61 -16 59 17.8          17.4   EX062844
     K05X77T  C2005 12 11.18365 03 32 06.14 -16 59 04.0          16.7   EX062844
     K05X77T  C2005 12 11.18610 03 32 04.02 -16 58 44.4          17.5   EX062844
     K05X77T  C2005 12 11.18862 03 32 01.64 -16 58 23.4          17.2   EX062844
     K05X77T  C2005 12 11.19134 03 31 59.17 -16 58 02.2          16.2   EX062844
     K05X77T  C2005 12 11.19418 03 31 56.57 -16 57 38.1          17.1   EX062844
     K05X77T  C2005 12 11.19686 03 31 54.18 -16 57 16.4          17.1   EX062844
     K05X77T  C2005 12 11.19955 03 31 51.67 -16 56 54.1          16.8   EX062844
     K05X77T  C2005 12 11.20222 03 31 49.33 -16 56 31.9          16.7   EX062844
     K05X77T  C2005 12 11.20492 03 31 46.83 -16 56 09.4          16.8   EX062844
     K05X77T  C2005 12 11.20759 03 31 44.45 -16 55 48.5          17.2   EX062844
     K05X77T  C2005 12 11.21028 03 31 42.01 -16 55 26.2          17.0   EX062844
     K05X77T  C2005 12 11.29149 03 30 33.44 -16 46 43.3          17.2 R EX062699
     K05X77T  C2005 12 11.29492 03 30 30.32 -16 46 14.8                 EX062699
     K05X77T  C2005 12 11.29834 03 30 27.22 -16 45 47.2                 EX062699
     K05X77T  C2005 12 11.30175 03 30 24.09 -16 45 19.3                 EX062699
     K05X77T  C2005 12 11.89928 03 21 41.83 -15 22 40.5                 EX062J95
     K05X77T  C2005 12 11.90509 03 21 36.53 -15 21 51.5                 EX062J95
     K05X77T  C2005 12 11.90975 03 21 32.26 -15 21 11.4                 EX062J95
     K05X77T  C2005 12 11.91432 03 21 28.03 -15 20 33.0          17.7 R EX062J95

Observer details:
143 Gnosca.  Observer S. Sposetti.  0.40-m f/4 reflector + CCD.
428 Reedy Creek.  Observer J. Broughton.  0.51-m f/2.7 reflector + CCD.
699 Lowell Observatory-LONEOS.  Observer M. E. Van Ness.  0.59-m LONEOS
    Schmidt + CCD.
844 Los Molinos.  Observer R. Salvo.  0.46-m f/2.8 reflector + CCD.
J95 Great Shefford.  Observer P. Birtwhistle.  0.40-m f/6.0 Schmidt-Cassegrain
    + CCD.

Orbital elements:
2005 XT77                                                            PHA 0.015A
Epoch 2005 Nov. 26.0 TT = JDT 2453700.5                 MPC
M 196.55209              (2000.0)            P               Q
n   1.27908061     Peri.  150.01170     -0.55233310     +0.77961095
a   0.8404995      Node    84.90984     -0.81158444     -0.42200569
e   0.2664747      Incl.   17.23880     -0.19041754     -0.46272882
P   0.77           H   20.4           G   0.15
From 37 observations 2005 Dec. 6-11.

Ephemeris:
2005 XT77                a,e,i = 0.84, 0.27, 17                  q = 0.6165
Date    TT    R. A. (2000) Decl.     Delta      r     Elong.  Phase     V
2005 12 06    04 41.52   -25 52.4    0.0885   1.046   131.6    44.8    16.9
2005 12 08    04 16.50   -23 05.5    0.0821   1.043   133.1    43.6    16.7
2005 12 10    03 49.18   -19 30.4    0.0770   1.039   133.5    43.4    16.6
2005 12 12    03 20.21   -15 06.6    0.0733   1.035   132.4    44.6    16.5
2005 12 14    02 50.53   -10 02.3    0.0713   1.031   129.6    47.3    16.5
2005 12 16    02 21.16   -04 34.7    0.0711   1.027   125.3    51.4    16.6
2005 12 18    01 53.09   +00 54.1    0.0727   1.022   120.0    56.5    16.8
2005 12 20    01 27.01   +06 03.8    0.0758   1.017   114.2    61.9    17.0
2005 12 22    01 03.32   +10 41.0    0.0804   1.012   108.5    67.2    17.3
2005 12 24    00 42.13   +14 40.6    0.0862   1.007   103.1    72.1    17.6
2005 12 26    00 23.35   +18 03.3    0.0928   1.001    98.1    76.6    17.9
2005 12 28    00 06.76   +20 52.9    0.100    0.995    93.7    80.6    18.2
2005 12 30    23 52.11   +23 14.3    0.108    0.989    89.7    84.1    18.5
2006 01 01    23 39.11   +25 12.4    0.116    0.982    86.0    87.2    18.8
2006 01 03    23 27.51   +26 51.3    0.125    0.975    82.7    90.0    19.0
2006 01 05    23 17.07   +28 14.3    0.133    0.968    79.7    92.5    19.2
2006 01 07    23 07.59   +29 24.1    0.142    0.961    76.9    94.9    19.5
2006 01 09    22 58.90   +30 22.5    0.150    0.954    74.3    97.0    19.7
2006 01 11    22 50.86   +31 11.2    0.159    0.946    71.8    99.0    19.9
2006 01 13    22 43.35   +31 51.1    0.168    0.938    69.5   100.9    20.1
2006 01 15    22 36.30   +32 23.2    0.176    0.930    67.3   102.6    20.2

Brian G. Marsden             (C) Copyright 2005 MPC           M.P.E.C. 2005-X62

Read MPEC 2005-X61 Read MPEC 2005-X63


MPEC number:

Enter an
MPEC number in one of the following forms:
  • 1997-B01 (the full form)
  • J97B01 (the packed version of the full form)
  • B01 (the abbreviated form)

Valid HTML 4.01!